GW2424 Weather Reports


time (UTC)temp
C
wind
direction
speed
KPH
gust
KPH
rain 1hr
cm
rain 24hr
cm
rain mn
cm
humidity
%
barometer
mb
20260906224605 13 1 3.2 6.4 0.00 1.42 1.02 89 1018.2
20260906223102 13 4 1.6 4.8 0.00 1.42 1.02 89 1018.4
20260906221559 13 274 1.6 3.2 0.00 1.42 1.02 90 1018.4
20260906220057 13 315 3.2 6.4 0.00 1.42 1.02 90 1018.4
20260906214601 13 347 1.6 9.7 0.00 1.42 1.02 90 1018.3
20260906213058 13 42 4.8 11.3 0.00 1.42 1.02 89 1018.3
20260906211559 13 31 3.2 11.3 0.00 1.42 1.02 88 1018.1
20260906210100 13 30 6.4 9.7 0.00 1.42 1.02 88 1018.2
20260906204558 13 16 6.4 11.3 0.00 1.42 1.02 88 1018.3
20260906203057 12 11 4.8 11.3 0.00 1.42 1.02 88 1018.2
20260906201559 12 23 4.8 12.9 0.00 1.42 1.02 88 1018.5
20260906200053 12 19 9.7 12.9 0.00 1.42 1.02 88 1018.6
20260906194602 13 32 4.8 11.3 0.00 1.42 1.02 87 1018.8
20260906193100 13 8 6.4 12.9 0.00 1.42 1.02 85 1018.8
20260906191555 13 18 8.0 17.7 0.00 1.42 1.02 84 1018.9
20260906190109 13 24 9.7 16.1 0.00 1.42 1.02 85 1018.9
20260906184625 12 332 8.0 17.7 0.03 1.42 1.02 86 1018.8
20260906183057 12 30 11.3 17.7 0.03 1.42 1.02 86 1018.8
20260906181555 12 34 9.7 14.5 0.03 1.42 1.02 88 1019.3
20260906174559 11 25 6.4 12.9 0.00 1.40 0.99 92 1019.9
20260906173101 11 77 4.8 16.1 0.00 1.40 0.99 94 1020.3
20260906171559 11 42 4.8 8.0 0.00 1.40 0.99 94 1020.5
20260906170100 11 339 4.8 11.3 0.00 1.40 0.99 94 1021.0
20260906164559 11 339 4.8 9.7 0.00 1.40 0.99 93 1021.0
20260906163057 11 36 6.4 9.7 0.00 1.40 0.99 94 1020.5
20260906162053 11 15 8.0 12.9 0.00 1.40 0.99 95 1020.6
20260906154610 10 7 4.8 12.9 0.08 1.42 0.99 96 1021.0
20260906153147 10 334 3.2 9.7 0.46 1.42 0.99 96 1021.1
20260906151720 10 317 1.6 8.0 0.51 1.42 0.99 95 1021.6
20260906150059 10 276 3.2 8.0 0.51 1.42 0.99 96 1021.8
20260906144602 10 293 4.8 9.7 0.43 1.37 0.91 95 1021.8
20260906143103 10 312 4.8 14.5 0.05 0.99 0.53 96 1021.9
20260906141600 10 290 6.4 14.5 0.00 0.94 0.48 96 1021.1
20260906140056 11 21 11.3 16.1 0.00 0.94 0.48 96 1020.4
20260906134617 11 32 6.4 11.3 0.00 1.04 0.48 96 1020.4
20260906133057 11 32 8.0 12.9 0.00 1.04 0.48 96 1020.5
20260906131600 11 29 8.0 12.9 0.00 1.04 0.48 95 1020.4
20260906130132 11 34 6.4 14.5 0.00 1.04 0.48 95 1020.8
20260906124607 11 8 8.0 12.9 0.00 1.07 0.48 94 1021.1
20260906123103 11 337 4.8 16.1 0.00 1.07 0.48 93 1021.3
20260906121607 11 315 6.4 16.1 0.00 1.07 0.48 93 1021.6
20260906120106 12 53 12.9 24.1 0.00 1.07 0.48 92 1021.1
20260906114558 12 65 16.1 24.1 0.00 1.07 0.48 93 1021.0
20260906113057 11 57 14.5 22.5 0.00 1.07 0.48 93 1020.9
20260906111602 11 68 12.9 24.1 0.00 1.07 0.48 93 1020.7
20260906110057 11 58 11.3 16.1 0.00 1.07 0.48 96 1020.6
20260906104605 11 50 11.3 19.3 0.00 1.07 0.48 97 1021.1
20260906103100 11 50 8.0 17.7 0.00 1.07 0.48 97 1021.5
20260906101607 10 66 8.0 16.1 0.05 1.07 0.48 97 1021.3
20260906100107 10 58 6.4 16.1 0.18 1.07 0.48 97 1021.7
20260906094604 11 356 8.0 12.9 0.18 1.07 0.48 97 1021.7
20260906093125 10 38 6.4 17.7 0.18 1.07 0.48 97 1021.5
20260906091602 10 44 14.5 22.5 0.13 1.02 0.43 96 1021.8
20260906090106 10 285 1.6 4.8 0.00 0.89 0.30 96 1022.8
20260906084601 10 316 3.2 8.0 0.00 0.89 0.30 96 1022.7
20260906083104 10 339 6.4 19.3 0.00 0.89 0.30 96 1022.2
20260906081625 10 8 8.0 12.9 0.00 0.89 0.30 96 1022.1
20260906074557 10 354 8.0 17.7 0.03 0.89 0.30 96 1022.6
20260906073100 10 354 9.7 17.7 0.15 0.89 0.30 96 1022.4
20260906071604 10 320 4.8 9.7 0.23 0.89 0.30 95 1023.2
20260906070058 10 20 6.4 12.9 0.28 0.86 0.28 95 1023.0
20260906064602 11 331 3.2 11.3 0.25 0.84 0.25 95 1023.2
20260906063126 11 321 3.2 4.8 0.15 0.74 0.15 95 1024.2
20260906061629 10 288 0.0 1.6 0.13 0.66 0.08 95 1024.1
20260906060133 10 27 3.2 6.4 0.15 0.58 0.00 95 1023.3
20260906054735 10 56 1.6 6.4 0.18 0.58 0.58 94 1023.6
20260906054700 10 56 1.6 6.4 0.18 0.58 0.58 94 1023.6
20260906053058 10 13 4.8 9.7 0.18 0.58 0.58 94 1023.3
20260906051645 10 333 1.6 4.8 0.13 0.53 0.53 93 1023.8
20260906050057 11 216 1.6 3.2 0.13 0.43 0.43 92 1024.5
20260906044559 11 358 1.6 6.4 0.20 0.41 0.41 91 1023.1
20260906043055 11 58 4.8 11.3 0.23 0.41 0.41 90 1022.8
20260906041602 11 42 8.0 17.7 0.23 0.41 0.41 90 1022.4
20260906040106 11 55 1.6 3.2 0.13 0.30 0.30 88 1024.0
20260906034605 11 0 0.0 1.6 0.03 0.20 0.20 85 1024.2
20260906033059 11 34 3.2 6.4 0.00 0.18 0.18 83 1023.2
20260906031557 11 38 3.2 4.8 0.00 0.18 0.18 83 1023.2
20260906030100 11 33 4.8 9.7 0.00 0.18 0.18 83 1022.6
20260906024559 12 40 8.0 12.9 0.00 0.18 0.18 81 1022.1
20260906023053 12 44 9.7 14.5 0.00 0.18 0.18 80 1021.9
20260906021604 12 27 6.4 9.7 0.00 0.18 0.18 78 1022.0
20260906020101 13 23 8.0 12.9 0.00 0.18 0.18 76 1021.9
20260906014605 13 19 6.4 14.5 0.00 0.18 0.18 74 1022.0
20260906013059 14 25 8.0 14.5 0.00 0.18 0.18 72 1021.5
20260906011605 15 333 9.7 16.1 0.00 0.18 0.18 70 1021.5
20260906004604 16 353 6.4 12.9 0.00 0.18 0.18 68 1021.4
20260906003101 16 305 8.0 17.7 0.00 0.18 0.18 69 1021.6
20260906001558 16 354 6.4 14.5 0.00 0.18 0.18 68 1021.8
20260906000100 16 332 9.7 16.1 0.00 0.18 0.18 69 1022.0
20260905234555 15 44 9.7 19.3 0.00 0.18 0.18 72 1022.0
20260905233114 15 32 11.3 22.5 0.00 0.18 0.18 71 1021.9
20260905231558 16 335 9.7 19.3 0.00 0.18 0.18 70 1021.7